Location: Claremont
(35.7250°N, 81.1500°W)
Time: 10:58:53
(UTC-05:00)

Hubble Space Telescope - Visible Passes

Search period start: 13 November 2019 00:00
Search period end: 23 November 2019 00:00
Orbit: 536 x 540 km, 28.5° (Epoch: 13 November)

Date Brightness Start Highest point End Pass type
(mag) Time Alt. Az. Time Alt. Az. Time Alt. Az.
17 Nov 3.6 19:49:27 10° SW 19:49:56 12° SSW 19:49:56 12° SSW visible
18 Nov 3.2 18:00:18 10° S 18:01:25 11° SSE 18:02:32 10° SE visible
18 Nov 3.2 19:38:38 10° SW 19:40:00 17° SSW 19:40:00 17° SSW visible
19 Nov 3.1 17:48:41 10° S 17:50:42 13° SSE 17:52:44 10° SE visible
19 Nov 2.7 19:27:51 10° SW 19:30:01 22° SSW 19:30:01 22° SSW visible
20 Nov 3.0 17:37:27 10° SSW 17:40:00 16° SSE 17:42:34 10° ESE visible
20 Nov 2.4 19:17:07 10° SW 19:20:03 27° S 19:20:03 27° S visible
21 Nov 2.1 19:06:25 10° WSW 19:10:00 29° S 19:10:04 29° S visible
22 Nov 2.1 18:55:44 10° WSW 18:59:21 29° S 19:00:06 28° SSE visible
